User: anonymous   Login
Location: Newark
(41.0400°S, 62.7845°W)
Time: 18:35:45
(UTC+00:00)
Language:

ESTCUBE 1 - Orbit

View from above orbital plane
View from above orbital plane
View from above satellite
View from above satellite

Ground track
Ground track

The orbit data is extracted from the following two-line orbital elements,

1 39161U 13021C   22015.96533211  .00000365  00000-0  64933-4 0  9990
2 39161  97.9250  97.1143 0009129 182.2371 177.8821 14.72635842467029
Epoch (UTC): 15 January 2022 23:10:04
Eccentricity: 0.0009129
inclination: 97.9250°
perigee height: 646 km
apogee height: 659 km
right ascension of ascending node: 97.1143°
argument of perigee: 182.2371°
revolutions per day: 14.72635842
mean anomaly at epoch: 177.8821°
orbit number at epoch: 46702

The dashed part of the orbit path shows where the satellite is in the earth's shadow,  

DLR